Location: Peebles
(55.6412°N, 3.1714°W)
Time: 14:50:16
(UTC+01:00)

Cosmos 1441 Rocket - Pass Details

Date: 26 September 2021
Orbit: 494 x 539 km, 81.1° (Epoch: 17 October)

Event Time Altitude Azimuth Distance (km) Brightness Sun altitude
Rises 20:00:31 0° 350° (N) 2,629 7.1 -9.2°
Reaches altitude 10° 20:02:50 10° 0° (N) 1,731 6.0 -9.6°
Maximum altitude 20:06:17 33° 66° (ENE) 869 3.9 -10.0°
Enters shadow 20:09:17 12° 129° (SE) 1,552 5.1 -10.4°
